• In Hungary
  • List of Countries
  • For 7 days
  • Water Temperature
  • Satellite Maps
  • Weather Map
  • News
  • Weather Widgets
  • user-avatar
    Login

    Hourly Weather Obidza

    Today, 18 November, Saturday

    Time Temperature Precipitation Wind Pressure Humidity
    00:00 +3°C° 0.3 mm 1 mps 717 mmHg 94%
    01:00 +3°C° 0 mm 1 mps 717 mmHg 94%
    02:00 +3°C° 0.3 mm 1 mps 717 mmHg 95%
    03:00 +3°C° 0.3 mm 1 mps 716 mmHg 95%
    04:00 +3°C° 0.3 mm 1 mps 716 mmHg 95%
    05:00 +3°C° 0.1 mm 1 mps 716 mmHg 95%
    06:00 +2°C° 0.1 mm 1 mps 716 mmHg 96%
    07:00 +2°C° 0.1 mm 1 mps 716 mmHg 96%
    08:00 +3°C° 0.1 mm 1 mps 716 mmHg 94%
    09:00 +3°C° 0.1 mm 1 mps 716 mmHg 92%
    10:00 +4°C° 0.1 mm 1 mps 716 mmHg 89%
    11:00 +4°C° 0 mm 1 mps 715 mmHg 87%
    12:00 +4°C° 0 mm 1 mps 715 mmHg 86%
    13:00 +5°C° 0 mm 1 mps 714 mmHg 84%
    14:00 +4°C° 0 mm 1 mps 714 mmHg 86%
    15:00 +3°C° 0 mm 1 mps 714 mmHg 88%
    16:00 +3°C° 0 mm 1 mps 713 mmHg 91%
    17:00 +2°C° 0 mm 1 mps 713 mmHg 91%
    18:00 +2°C° 0 mm 1 mps 712 mmHg 91%
    19:00 +1°C° 0 mm 1 mps 712 mmHg 92%
    20:00 -1°C° 0 mm 2 mps 712 mmHg 90%
    21:00 -1°C° 0 mm 2 mps 712 mmHg 89%
    22:00 -1°C° 0 mm 2 mps 711 mmHg 87%
    23:00 -1°C° 0 mm 2 mps 711 mmHg 87%

    Tomorrow, 19 November, Sunday

    Time Temperature Precipitation Wind Pressure Humidity
    00:00 -1°C° 0 mm 2 mps 711 mmHg 86%
    01:00 -1°C° 0 mm 2 mps 710 mmHg 86%
    02:00 -1°C° 0.1 mm 2 mps 710 mmHg 87%
    03:00 -1°C° 0.1 mm 2 mps 710 mmHg 87%
    04:00 -1°C° 0.1 mm 2 mps 709 mmHg 88%
    05:00 -1°C° 0.1 mm 2 mps 709 mmHg 89%
    06:00 -1°C° 0.1 mm 2 mps 709 mmHg 89%
    07:00 -1°C° 0.1 mm 2 mps 709 mmHg 90%
    08:00 +1°C° 0 mm 2 mps 710 mmHg 84%
    09:00 +1°C° 0 mm 3 mps 710 mmHg 79%
    10:00 +2°C° 0 mm 3 mps 710 mmHg 73%
    11:00 +2°C° 0 mm 3 mps 710 mmHg 71%
    12:00 +2°C° 0 mm 3 mps 710 mmHg 68%
    13:00 +3°C° 0 mm 4 mps 709 mmHg 66%
    14:00 +2°C° 0.1 mm 3 mps 709 mmHg 71%
    15:00 0°C° 0.1 mm 3 mps 709 mmHg 76%
    16:00 -1°C° 0.1 mm 2 mps 709 mmHg 81%
    17:00 -1°C° 0 mm 2 mps 709 mmHg 82%
    18:00 -1°C° 0 mm 2 mps 709 mmHg 83%
    19:00 -1°C° 0 mm 3 mps 709 mmHg 85%
    20:00 -1°C° 0.2 mm 3 mps 709 mmHg 86%
    21:00 -1°C° 0.2 mm 3 mps 709 mmHg 87%
    22:00 -1°C° 0.2 mm 3 mps 709 mmHg 87%
    23:00 -1°C° 0.1 mm 3 mps 709 mmHg 88%

    Day after tomorrow, 20 November, Monday

    Time Temperature Precipitation Wind Pressure Humidity
    00:00 -1°C° 0.1 mm 3 mps 709 mmHg 88%
    01:00 -1°C° 0.1 mm 3 mps 709 mmHg 88%
    02:00 -1°C° 0.1 mm 3 mps 709 mmHg 88%
    03:00 -1°C° 0.1 mm 3 mps 709 mmHg 88%
    04:00 -1°C° 0.1 mm 3 mps 709 mmHg 89%
    05:00 -1°C° 0.2 mm 3 mps 709 mmHg 89%
    06:00 -1°C° 0.2 mm 3 mps 710 mmHg 90%
    07:00 -1°C° 0.2 mm 3 mps 710 mmHg 91%
    08:00 -1°C° 0.2 mm 3 mps 710 mmHg 87%
    09:00 -1°C° 0.2 mm 4 mps 711 mmHg 84%
    10:00 0°C° 0.2 mm 4 mps 711 mmHg 81%
    11:00 0°C° 0.2 mm 4 mps 711 mmHg 79%
    12:00 0°C° 0.2 mm 4 mps 711 mmHg 77%
    13:00 0°C° 0.2 mm 5 mps 712 mmHg 76%
    14:00 -1°C° 0.1 mm 4 mps 712 mmHg 79%
    15:00 0°C° 0.1 mm 3 mps 712 mmHg 82%
    16:00 -1°C° 0.1 mm 3 mps 712 mmHg 85%
    17:00 -1°C° 0 mm 2 mps 712 mmHg 87%
    18:00 -2°C° 0 mm 2 mps 712 mmHg 88%
    19:00 -2°C° 0 mm 2 mps 712 mmHg 90%
    20:00 -2°C° 0.1 mm 2 mps 712 mmHg 89%
    21:00 -2°C° 0.1 mm 2 mps 712 mmHg 89%
    22:00 -2°C° 0.1 mm 2 mps 712 mmHg 89%
    23:00 -2°C° 0.1 mm 2 mps 712 mmHg 90%

    21 November, Tuesday

    Time Temperature Precipitation Wind Pressure Humidity
    00:00 -1°C° 0.1 mm 2 mps 711 mmHg 90%
    01:00 -1°C° 0.1 mm 2 mps 711 mmHg 90%
    02:00 +1°C° 0.3 mm 1 mps 711 mmHg 91%
    03:00 +1°C° 0.3 mm 1 mps 710 mmHg 92%
    04:00 +1°C° 0.3 mm 1 mps 710 mmHg 93%
    05:00 +1°C° 0.7 mm 1 mps 709 mmHg 93%
    06:00 +1°C° 0.7 mm 1 mps 709 mmHg 94%
    07:00 +1°C° 0.7 mm 1 mps 709 mmHg 95%
    08:00 +1°C° 0.5 mm 1 mps 709 mmHg 94%
    09:00 +2°C° 0.5 mm 1 mps 709 mmHg 94%
    10:00 +2°C° 0.5 mm 1 mps 709 mmHg 94%
    11:00 +3°C° 0.2 mm 1 mps 709 mmHg 94%
    12:00 +3°C° 0.2 mm 1 mps 709 mmHg 94%
    13:00 +4°C° 0.2 mm 1 mps 709 mmHg 94%
    14:00 +3°C° 0.1 mm 1 mps 709 mmHg 95%
    15:00 +3°C° 0.1 mm 1 mps 710 mmHg 95%
    16:00 +3°C° 0.1 mm 1 mps 710 mmHg 96%
    17:00 +3°C° 0 mm 1 mps 711 mmHg 96%
    18:00 +2°C° 0 mm 1 mps 711 mmHg 96%
    19:00 +2°C° 0 mm 1 mps 712 mmHg 96%
    20:00 +2°C° 0 mm 1 mps 712 mmHg 96%
    21:00 +2°C° 0 mm 1 mps 713 mmHg 96%
    22:00 +2°C° 0 mm 1 mps 713 mmHg 96%
    23:00 +2°C° 0 mm 1 mps 713 mmHg 96%

    22 November, Wednesday

    Time Temperature Precipitation Wind Pressure Humidity
    00:00 +1°C° 0 mm 1 mps 714 mmHg 96%
    01:00 +1°C° 0 mm 1 mps 714 mmHg 96%
    02:00 0°C° 0 mm 1 mps 714 mmHg 95%
    03:00 0°C° 0 mm 1 mps 714 mmHg 95%
    04:00 -2°C° 0 mm 0 mps 714 mmHg 95%
    05:00 -1°C° 0 mm 1 mps 715 mmHg 94%
    06:00 -1°C° 0 mm 1 mps 715 mmHg 93%
    07:00 -1°C° 0 mm 1 mps 715 mmHg 93%
    08:00 0°C° 0 mm 1 mps 715 mmHg 91%
    09:00 +2°C° 0 mm 1 mps 716 mmHg 90%
    10:00 +2°C° 0 mm 2 mps 716 mmHg 89%
    11:00 +3°C° 0 mm 2 mps 716 mmHg 89%
    12:00 +4°C° 0 mm 2 mps 716 mmHg 90%
    13:00 +4°C° 0 mm 2 mps 716 mmHg 90%
    14:00 +4°C° 0 mm 2 mps 716 mmHg 91%
    15:00 +3°C° 0 mm 2 mps 716 mmHg 93%
    16:00 +3°C° 0 mm 2 mps 715 mmHg 94%
    17:00 +2°C° 0 mm 2 mps 716 mmHg 94%
    18:00 +2°C° 0 mm 2 mps 716 mmHg 94%
    19:00 +2°C° 0 mm 2 mps 716 mmHg 94%
    20:00 +2°C° 0 mm 2 mps 716 mmHg 93%
    21:00 +2°C° 0 mm 2 mps 716 mmHg 93%
    22:00 +2°C° 0 mm 2 mps 716 mmHg 93%
    23:00 +1°C° 0 mm 2 mps 717 mmHg 93%

    23 November, Thursday

    Time Temperature Precipitation Wind Pressure Humidity
    00:00 +1°C° 0 mm 2 mps 717 mmHg 93%
    01:00 +1°C° 0 mm 2 mps 717 mmHg 92%
    02:00 +1°C° 0 mm 2 mps 717 mmHg 93%
    03:00 +1°C° 0 mm 2 mps 717 mmHg 93%
    04:00 +1°C° 0 mm 2 mps 717 mmHg 93%
    05:00 +1°C° 0 mm 2 mps 717 mmHg 92%
    06:00 +2°C° 0 mm 2 mps 717 mmHg 92%
    07:00 +2°C° 0 mm 2 mps 717 mmHg 92%
    08:00 +2°C° 0 mm 3 mps 717 mmHg 91%
    09:00 +3°C° 0 mm 3 mps 717 mmHg 90%
    10:00 +4°C° 0 mm 3 mps 718 mmHg 90%
    11:00 +4°C° 0 mm 3 mps 718 mmHg 89%
    12:00 +5°C° 0 mm 3 mps 717 mmHg 89%
    13:00 +5°C° 0 mm 3 mps 717 mmHg 89%
    14:00 +5°C° 0 mm 3 mps 717 mmHg 90%
    15:00 +4°C° 0 mm 3 mps 717 mmHg 92%
    16:00 +3°C° 0 mm 3 mps 717 mmHg 93%
    17:00 +3°C° 0 mm 3 mps 717 mmHg 93%
    18:00 +2°C° 0 mm 3 mps 717 mmHg 93%
    19:00 +2°C° 0 mm 3 mps 717 mmHg 93%
    20:00 +2°C° 0 mm 3 mps 717 mmHg 93%
    21:00 +3°C° 0 mm 2 mps 717 mmHg 93%
    22:00 +3°C° 0 mm 2 mps 717 mmHg 93%
    23:00 +3°C° 0 mm 2 mps 717 mmHg 93%
    Show more